TimeCST,TemperatureF,Dew PointF,Humidity,Sea Level PressureIn,VisibilityMPH,Wind Direction,Wind SpeedMPH,Gust SpeedMPH,PrecipitationIn,Events,Conditions,WindDirDegrees,DateUTC
12:54 AM,7.0,3.0,84,30.38,9.0,Calm,Calm,-,N/A,,Clear,0,2013-01-15 06:54:00
1:54 AM,6.1,3.0,87,30.40,9.0,SSW,6.9,-,N/A,,Clear,200,2013-01-15 07:54:00
3:26 AM,5.0,1.4,85,30.29,8.0,ESE,3.5,-,N/A,,Partly Cloudy,120,2013-01-15 09:26:00
3:54 AM,5.0,1.9,87,30.37,8.0,SE,3.5,-,N/A,,Clear,130,2013-01-15 09:54:00
4:54 AM,3.0,-0.9,84,30.35,8.0,ESE,5.8,-,N/A,,Clear,120,2013-01-15 10:54:00
6:54 AM,3.9,-0.0,84,30.34,8.0,ESE,3.5,-,N/A,,Clear,110,2013-01-15 12:54:00
7:54 AM,6.1,1.9,83,30.34,6.0,East,3.5,-,N/A,,Clear,90,2013-01-15 13:54:00
8:54 AM,10.0,7.0,87,30.32,6.0,Calm,Calm,-,N/A,,Clear,0,2013-01-15 14:54:00
9:54 AM,14.0,9.0,80,30.31,10.0,SSW,10.4,-,N/A,,Clear,200,2013-01-15 15:54:00
10:54 AM,19.9,10.9,68,30.30,10.0,SW,10.4,-,N/A,,Overcast,230,2013-01-15 16:54:00
11:54 AM,25.0,12.0,58,30.25,10.0,SW,10.4,16.1,N/A,,Mostly Cloudy,220,2013-01-15 17:54:00
12:54 PM,26.1,10.9,53,30.23,10.0,SW,10.4,-,N/A,,Overcast,230,2013-01-15 18:54:00
1:54 PM,-9999,-9999,N/A,30.12,-9999.0,North,-9999.0,-,N/A,,Unknown,0,2013-01-15 19:54:00
2:54 PM,-9999,-9999,N/A,30.10,-9999.0,North,-9999.0,-,N/A,,Unknown,0,2013-01-15 20:54:00
3:54 PM,28.0,12.0,51,30.17,10.0,SW,12.7,21.9,N/A,,Scattered Clouds,230,2013-01-15 21:54:00
4:54 PM,27.0,12.0,53,30.16,10.0,SW,11.5,-,N/A,,Mostly Cloudy,220,2013-01-15 22:54:00
5:54 PM,25.0,12.9,60,30.15,10.0,SW,5.8,-,N/A,,Scattered Clouds,220,2013-01-15 23:54:00
6:54 PM,24.1,12.9,62,30.14,10.0,SSW,9.2,-,N/A,,Partly Cloudy,200,2013-01-16 00:54:00
7:54 PM,23.0,12.0,63,30.10,10.0,SSW,9.2,-,N/A,,Clear,210,2013-01-16 01:54:00
8:54 PM,24.1,12.0,60,30.08,10.0,SSW,5.8,-,N/A,,Overcast,200,2013-01-16 02:54:00
9:54 PM,21.0,12.0,68,30.05,10.0,SSW,5.8,-,N/A,,Clear,210,2013-01-16 03:54:00
10:54 PM,19.9,12.0,71,30.01,10.0,SSW,10.4,-,N/A,,Clear,210,2013-01-16 04:54:00